Date,TemperatureHighF,TemperatureAvgF,TemperatureLowF,DewpointHighF,DewpointAvgF,DewpointLowF,HumidityHigh,HumidityAvg,HumidityLow,PressureMaxIn,PressureMinIn,WindSpeedMaxMPH,WindSpeedAvgMPH,GustSpeedMaxMPH,PrecipitationSumIn
2013-10-1,75,65,58,68,62,57,100,91,74,30.00,29.91,16,2,16,0.00
2013-10-2,82,69,59,68,62,55,100,81,42,30.03,29.92,13,1,13,0.00
2013-10-3,80,68,58,74,67,57,100,94,78,30.02,29.89,11,0,11,0.02
2013-10-4,78,71,67,73,69,65,98,93,83,29.99,29.91,11,1,11,0.07
2013-10-5,72,68,65,71,68,65,100,98,93,30.00,29.82,10,0,10,0.10
2013-10-6,72,66,56,70,66,56,100,98,90,29.83,29.59,18,2,18,0.36
2013-10-7,60,53,46,57,49,43,98,85,70,30.11,29.66,22,4,22,0.01
2013-10-8,70,55,42,56,49,41,98,82,53,30.25,30.11,8,1,9,0.00
2013-10-9,73,63,46,59,56,44,99,77,56,30.28,30.17,10,1,10,0.00
2013-10-10,72,55,42,60,50,42,99,85,58,30.20,30.08,10,0,10,0.00
2013-10-11,73,58,44,62,54,43,100,88,53,30.13,30.04,9,0,9,0.00
2013-10-12,76,63,50,68,59,49,100,90,59,30.08,30.02,7,0,7,0.00
2013-10-13,74,62,46,64,53,42,99,75,40,30.31,30.04,12,1,12,0.00
2013-10-14,69,55,42,56,48,40,99,79,59,30.39,30.23,13,0,13,0.00
2013-10-15,63,58,45,63,56,43,99,94,85,30.24,29.82,13,1,13,0.04
2013-10-16,64,60,53,63,55,48,99,84,63,29.90,29.78,19,4,19,0.01
2013-10-17,53,50,48,51,48,46,96,92,84,29.88,29.75,17,2,17,0.05
2013-10-18,64,53,44,54,47,43,95,81,54,29.91,29.82,15,2,15,0.00
2013-10-19,50,45,41,47,42,38,97,90,80,29.90,29.75,13,2,13,0.19
2013-10-20,61,54,42,51,46,39,92,74,56,29.91,29.84,19,3,19,0.00
2013-10-21,58,53,42,52,48,38,95,82,74,29.87,29.78,21,4,21,0.05
2013-10-22,53,43,35,39,35,31,86,75,56,29.94,29.84,16,3,16,0.00
2013-10-23,51,40,31,40,35,30,98,82,52,29.93,29.80,18,2,18,0.01
2013-10-24,49,39,32,39,34,31,100,83,55,30.17,29.92,14,2,14,0.00
2013-10-25,50,42,33,40,34,31,95,73,60,30.32,30.12,18,3,18,0.01
2013-10-26,50,43,38,41,36,32,95,75,66,30.13,29.79,28,5,28,0.04
2013-10-27,54,43,31,43,37,30,96,79,61,30.07,29.98,10,1,10,0.00
2013-10-28,60,46,32,49,39,30,92,78,63,30.36,30.02,13,1,13,0.00
2013-10-29,55,47,37,46,41,33,96,81,64,30.41,30.21,9,1,9,0.00
2013-10-30,62,47,33,53,44,32,100,90,66,30.21,29.93,7,0,7,0.01
2013-10-31,60,57,54,60,57,53,100,100,97,29.94,29.15,21,2,21,1.33